Stations météo

réclame
Mon MeteoGroup
Bastia, France (7790): Température de l'air & dewpoint: 15.01.2019 17:00:00 - 21.01.2019 17:00:00 (CET)Bastia, France (7790): Température de l'air 5cm: 15.01.2019 17:00:00 - 21.01.2019 17:00:00 (CET)Bastia, France (7790): Température de l'air -20cm & Température de l'air -100cm: 15.01.2019 17:00:00 - 21.01.2019 17:00:00 (CET)Bastia, France (7790): Vitesse du vent & gusts: 15.01.2019 17:00:00 - 21.01.2019 17:00:00 (CET)Bastia, France (7790): Direction du vent: 15.01.2019 17:00:00 - 21.01.2019 17:00:00 (CET)Bastia, France (7790): reduced air pressure: 15.01.2019 17:00:00 - 21.01.2019 17:00:00 (CET)Bastia, France (7790): visibility: 15.01.2019 17:00:00 - 21.01.2019 17:00:00 (CET)Bastia, France (7790): Ensoleillement: 15.01.2019 17:00:00 - 21.01.2019 17:00:00 (CET)Bastia, France (7790): Quantités de précipitations: 15.01.2019 17:00:00 - 21.01.2019 17:00:00 (CET)
Date & Time tt [°C] td [°C] tt 5cm [°C] tt -20cm [°C] tt -100cm [°C] ff [km/h] ff [knt] fx [km/h] fx [knt] dd ppp [hPa] vv [km] sd [min] rr [mm]
21.01.2019 17:00:00 8,4 5,1 7,2 9,1 11,4 11 6 21 12 WNW 1011,7 20 0 0,0
21.01.2019 16:00:00 8,9 4,7 8,5 9,1 11,4 10 5 26 14 NW 1011,8 20 0 0,0
21.01.2019 15:00:00 9,0 4,8 8,3 9,1 11,4 14 8 26 14 N 1011,9 60 0 0,0
21.01.2019 14:00:00 9,0 4,6 8,3 9,1 11,4 16 8 26 14 NW 1012,1 56 0 0,0
21.01.2019 13:00:00 9,4 5,9 8,7 9,1 11,4 16 9 25 13 NNW 1012,4 53 0 0,0
21.01.2019 12:00:00 9,7 6,0 8,6 9,1 11,4 13 7 22 12 N 1012,9 50 0 0,0
21.01.2019 11:00:00 9,5 6,0 9,0 9,1 11,4 9 5 22 12 NE 1013,4 60 0 0,0
21.01.2019 10:00:00 8,0 7,1 6,9 9,1 11,4 5 3 12 7 SW 1013,1 30 0 0,0
21.01.2019 09:00:00 7,1 6,0 6,3 9,1 11,4 7 4 16 9 SW 1012,8 20 0 0,8
21.01.2019 08:00:00 7,2 6,0 6,5 9,1 11,4 10 5 30 16 W 1012,6 9 0 2,8
21.01.2019 07:00:00 7,0 6,1 5,8 9,1 11,4 5 3 13 7 WNW 1012,4 2,5 0 4,5
21.01.2019 06:00:00 6,3 5,4 5,5 9,1 11,4 8 4 16 9 SW 1012,0 20 0 0,0
21.01.2019 05:00:00 6,5 5,4 5,7 9,1 11,4 10 5 18 10 SW 1012,3 20 0 0,0
21.01.2019 04:00:00 6,5 5,4 5,9 9,1 11,4 10 5 16 9 SSW 1012,5 8 0 0,8
21.01.2019 03:00:00 7,5 6,3 5,9 9,2 11,4 13 7 21 11 W 1012,8 10 0 2,0
21.01.2019 02:00:00 6,7 5,5 2,8 9,1 11,4 7 4 13 7 W 1013,0 16 0 0,8
21.01.2019 01:00:00 5,0 3,3 2,1 9,2 11,4 8 5 12 6 SW 1012,8 20 0 0,0
21.01.2019 00:00:00 5,4 3,9 1,0 9,1 11,4 8 4 11 6 SW 1013,0 20 0 0,0
20.01.2019 23:00:00 5,9 4,1 2,8 9,1 11,4 8 4 10 6 SW 1013,0 20 0 0,0
20.01.2019 22:00:00 7,2 4,8 4,7 9,1 11,4 8 4 10 6 WSW 1012,8 20 0 0,0
20.01.2019 21:00:00 7,7 5,3 5,8 9,1 11,4 7 4 9 5 WSW 1012,9 20 0 0,0
20.01.2019 20:00:00 8,2 5,3 6,6 9,1 11,4 8 4 17 9 WSW 1012,9 20 0 0,0
20.01.2019 19:00:00 8,1 5,6 5,8 9,0 11,4 9 5 17 9 S 1012,6 20 0 0,0
20.01.2019 18:00:00 8,5 5,1 7,7 9,0 11,4 11 6 18 10 NW 1012,0 20 0 0,0
20.01.2019 17:00:00 9,9 6,1 8,6 9,0 11,4 9 5 13 7 WSW 1011,9 15 0 0,0
20.01.2019 16:00:00 10,4 5,4 10,0 8,9 11,4 6 4 16 9 E 1011,8 40 0 0,0
20.01.2019 15:00:00 10,6 6,0 10,4 8,9 11,4 10 6 20 11 ENE 1011,7 60 0 0,0
20.01.2019 14:00:00 11,0 4,9 11,2 8,9 11,4 10 5 21 11 NNE 1011,8 60 0 0,0
20.01.2019 13:00:00 11,6 4,6 13,5 9,0 11,4 11 6 17 9 N 1012,3 60 18 0,0
20.01.2019 12:00:00 12,4 4,1 17,1 9,0 11,4 7 4 12 7 N 1012,7 52 60 0,0
20.01.2019 11:00:00 10,8 1,9 10,0 9,0 11,4 7 4 18 10 SSW 1013,1 52 60 0,0
20.01.2019 10:00:00 8,2 0,7 5,6 9,0 11,4 14 8 27 15 SW 1012,8 55 52 0,0
20.01.2019 09:00:00 6,5 0,2 3,0 9,1 11,4 14 8 29 15 SW 1012,5 60 41 0,0
20.01.2019 08:00:00 4,8 0,0 2,4 9,1 11,4 18 10 31 17 SW 1012,3 60 0 0,0
20.01.2019 07:00:00 4,9 0,1 2,5 9,1 11,4 18 10 28 15 WSW 1012,1 20 0 0,0
20.01.2019 06:00:00 4,8 0,0 2,5 9,1 11,4 15 8 26 14 SW 1011,9 20 0 0,0
20.01.2019 05:00:00 4,7 0,6 2,6 9,1 11,4 15 8 26 14 SW 1012,1 20 0 0,0
20.01.2019 04:00:00 4,7 0,8 2,9 9,2 11,4 15 8 27 14 SW 1012,5 20 0 0,0
20.01.2019 03:00:00 5,3 1,6 2,9 9,2 11,4 18 10 28 15 SW 1012,8 56 0 0,0
20.01.2019 02:00:00 5,1 1,4 2,8 9,2 11,4 11 6 31 17 SW 1012,7 54 0 0,0
20.01.2019 01:00:00 5,9 2,0 3,5 9,2 11,4 17 9 27 15 SW 1012,8 60 0 0,0
20.01.2019 00:00:00 6,1 2,2 4,0 9,2 11,4 17 9 23 12 WSW 1013,2 53 0 0,0
19.01.2019 23:00:00 6,3 2,6 3,7 9,2 11,4 13 7 19 11 SW 1013,4 20 0 0,0
19.01.2019 22:00:00 7,1 3,0 4,3 9,2 11,4 14 8 22 12 SW 1013,4 20 0 0,0
19.01.2019 21:00:00 7,4 3,3 3,4 9,1 11,4 11 6 16 9 WSW 1013,3 20 0 0,0
19.01.2019 20:00:00 7,6 3,4 5,0 9,1 11,4 9 5 16 8 SW 1013,2 20 0 0,0
19.01.2019 19:00:00 7,1 3,7 4,7 9,0 11,4 8 4 11 6 SSW 1013,0 20 0 0,0
19.01.2019 18:00:00 8,5 3,5 4,9 9,0 11,4 3 1 23 12 NNW 1012,8 20 0 0,0
19.01.2019 17:00:00 9,4 3,1 6,8 9,0 11,4 11 6 16 9 ENE 1012,7 60 0 0,0
19.01.2019 16:00:00 11,4 2,9 11,7 8,9 11,4 8 4 14 7 N 1012,6 60 45 0,0
19.01.2019 15:00:00 12,3 3,2 12,2 8,9 11,4 9 5 23 12 SSW 1012,5 59 20 0,0
19.01.2019 14:00:00 11,3 4,0 12,5 8,9 11,5 13 7 29 16 NW 1012,8 55 24 0,0
19.01.2019 13:00:00 11,6 4,3 14,1 8,9 11,4 19 11 32 17 NW 1013,2 60 51 0,0
19.01.2019 12:00:00 12,2 2,3 12,5 8,9 11,4 11 6 21 12 SW 1013,5 39 37 0,0
19.01.2019 11:00:00 10,2 1,6 10,3 9,0 11,4 11 6 16 9 SSW 1014,3 59 22 0,0
19.01.2019 10:00:00 9,0 0,7 7,0 9,0 11,4 11 6 29 15 SW 1013,7 58 21 0,0
19.01.2019 09:00:00 7,3 0,0 5,0 9,0 11,4 9 5 25 14 SW 1013,3 60 7 0,0
19.01.2019 08:00:00 6,8 -0,7 4,9 9,0 11,4 15 8 27 15 SW 1013,0 60 0 0,0
19.01.2019 07:00:00 7,2 -0,3 3,9 9,0 11,4 11 6 21 11 SW 1012,7 20 0 0,0
19.01.2019 06:00:00 6,0 -0,7 3,1 9,1 11,4 14 8 22 12 SW 1012,7 60 0 0,0
19.01.2019 05:00:00 6,1 -1,1 2,3 9,1 11,4 12 6 21 11 WSW 1012,8 20 0 0,0
19.01.2019 04:00:00 6,1 -1,6 2,7 9,1 11,5 11 6 23 12 SW 1013,2 20 0 0,0
19.01.2019 03:00:00 6,0 -1,2 3,5 9,2 11,4 13 7 24 13 SW 1013,4 60 0 0,0
19.01.2019 02:00:00 7,1 -1,3 4,8 9,1 11,4 16 9 26 14 SW 1013,4 60 0 0,0
19.01.2019 01:00:00 7,8 -1,2 4,5 9,2 11,5 14 7 31 17 WSW 1013,6 60 0 0,0
19.01.2019 00:00:00 7,5 -1,2 4,6 9,2 11,4 14 8 31 17 WSW 1013,6 60 0 0,0
18.01.2019 23:00:00 8,1 -0,9 2,6 9,2 11,4 15 8 26 14 SW 1013,3 60 0 0,0
18.01.2019 22:00:00 8,4 -0,9 3,7 9,2 11,4 9 5 29 16 W 1012,9 20 0 0,0
18.01.2019 21:00:00 8,3 0,5 1,6 9,2 11,5 13 7 22 12 WSW 1013,0 20 0 0,0
18.01.2019 20:00:00 7,4 0,4 -0,3 9,1 11,5 9 5 15 8 SW 1012,8 20 0 0,0
18.01.2019 19:00:00 7,7 0,9 1,1 9,1 11,4 7 4 17 9 W 1012,5 20 0 0,0
18.01.2019 18:00:00 9,9 1,5 7,7 9,0 11,4 16 8 37 20 NW 1011,9 20 0 0,0
18.01.2019 17:00:00 10,6 2,2 9,0 9,0 11,5 21 11 35 19 NW 1011,3 20 50 0,0
18.01.2019 16:00:00 12,2 1,8 13,1 9,0 11,4 21 11 46 25 WNW 1010,9 33 60 0,0
18.01.2019 15:00:00 12,7 3,4 15,7 9,0 11,4 29 16 40 22 NNW 1010,6 31 60 0,0
18.01.2019 14:00:00 13,7 2,6 18,1 8,9 11,4 25 14 41 22 N 1010,3 36 60 0,0
18.01.2019 13:00:00 13,8 2,1 18,4 8,9 11,4 18 10 35 19 NNW 1010,6 40 60 0,0
18.01.2019 12:00:00 14,1 2,0 19,1 9,0 11,5 12 7 28 15 NW 1011,1 43 60 0,0
18.01.2019 11:00:00 13,7 -1,5 14,3 9,0 11,4 16 9 29 16 W 1011,5 60 60 0,0
18.01.2019 10:00:00 12,3 -1,6 8,8 9,0 11,5 19 11 35 19 W 1011,3 60 60 0,0
18.01.2019 09:00:00 11,3 -2,5 5,1 9,1 11,5 20 11 36 19 WSW 1010,6 55 29 0,0
18.01.2019 08:00:00 9,1 -2,5 3,1 9,1 11,4 17 9 29 15 WSW 1009,7 60 0 0,0
18.01.2019 07:00:00 8,7 -1,4 1,3 9,1 11,5 8 4 20 11 SSW 1009,7 20 0 0,0
18.01.2019 06:00:00 9,4 0,0 4,8 9,1 11,4 5 3 24 13 WNW 1009,3 20 0 0,0
18.01.2019 05:00:00 9,9 1,3 3,7 9,2 11,5 17 9 25 13 SW 1009,4 20 0 0,0
18.01.2019 04:00:00 6,7 3,1 0,2 9,2 11,5 13 7 18 10 SSW 1010,3 60 0 0,0
18.01.2019 03:00:00 6,0 2,6 1,2 9,2 11,4 5 3 19 10 SSW 1011,0 60 0 0,0
18.01.2019 02:00:00 5,6 2,8 -0,7 9,2 11,5 13 7 18 10 SSW 1011,2 60 0 0,0
18.01.2019 01:00:00 5,6 3,3 -0,1 9,2 11,4 8 5 15 8 SW 1011,6 54 0 0,0
18.01.2019 00:00:00 5,4 3,2 0,7 9,2 11,5 9 5 13 7 SW 1012,4 52 0 0,0
17.01.2019 23:00:00 5,7 3,7 -0,7 9,2 11,5 9 5 12 7 SW 1012,5 20 0 0,0
17.01.2019 22:00:00 5,7 4,2 -0,2 9,2 11,5 8 4 11 6 SW 1012,6 20 0 0,0
17.01.2019 21:00:00 6,5 4,7 0,4 9,2 11,5 7 4 13 7 WSW 1012,8 20 0 0,0
17.01.2019 20:00:00 6,9 4,9 0,6 9,1 11,5 5 3 9 5 SW 1013,1 19 0 0,0
17.01.2019 19:00:00 8,0 5,6 3,2 9,0 11,4 6 4 12 6 SSW 1013,0 20 0 0,0
17.01.2019 18:00:00 10,3 6,4 5,5 9,0 11,5 5 3 6 4 SSW 1013,1 19 0 0,0
17.01.2019 17:00:00 12,2 6,2 7,8 8,9 11,5 3 2 8 5 S 1013,2 50 0 0,0
17.01.2019 16:00:00 13,1 6,7 13,3 8,9 11,5 7 4 11 6 SE 1013,4 55 0 0,0
17.01.2019 15:00:00 13,5 6,4 14,3 8,9 11,5 5 3 18 10 ESE 1013,5 55 7 0,0
17.01.2019 14:00:00 14,7 7,3 19,1 8,9 11,5 9 5 20 11 ESE 1013,7 20 51 0,0
17.01.2019 13:00:00 14,0 6,1 18,4 8,9 11,5 9 5 18 10 ESE 1014,4 51 51 0,0
17.01.2019 12:00:00 14,4 2,9 18,1 8,9 11,5 9 5 22 12 S 1015,3 60 60 0,0
17.01.2019 11:00:00 12,4 3,3 12,7 8,9 11,5 14 8 24 13 SSW 1016,0 58 47 0,0
17.01.2019 10:00:00 10,8 2,6 6,2 8,9 11,5 16 9 33 18 SW 1016,0 51 32 0,0
17.01.2019 09:00:00 7,3 1,8 5,1 8,9 11,5 19 10 32 18 SW 1016,1 59 3 0,0
17.01.2019 08:00:00 7,0 1,7 3,9 8,9 11,5 18 10 27 14 SW 1016,1 20 0 0,0
17.01.2019 07:00:00 5,7 1,6 3,8 9,0 11,5 16 9 26 14 SW 1016,5 20 0 0,0
17.01.2019 06:00:00 7,0 2,1 4,4 8,9 11,5 17 9 27 14 SW 1016,5 20 0 0,0
17.01.2019 05:00:00 6,9 2,2 4,6 9,0 11,5 15 8 24 13 SW 1017,0 20 0 0,0
17.01.2019 04:00:00 6,7 2,4 3,5 9,0 11,5 16 9 24 13 SW 1017,7 20 0 0,0
17.01.2019 03:00:00 7,2 2,7 4,9 9,0 11,5 12 6 27 14 SW 1018,3 20 0 0,0
17.01.2019 02:00:00 7,2 2,9 2,6 9,0 11,5 15 8 23 12 SW 1018,4 20 0 0,0
17.01.2019 01:00:00 5,7 2,5 2,7 9,0 11,5 10 5 17 9 SW 1019,0 20 0 0,0
17.01.2019 00:00:00 7,4 3,3 5,2 9,0 11,5 13 7 22 12 SW 1019,5 20 0 0,0
16.01.2019 23:00:00 8,1 3,9 5,1 9,0 11,5 15 8 22 12 SW 1019,9 20 0 0,0
16.01.2019 22:00:00 8,0 4,4 3,2 9,0 11,5 12 7 19 11 SW 1019,9 20 0 0,0
16.01.2019 21:00:00 6,8 4,5 0,7 9,0 11,5 9 5 13 7 SSW 1019,6 20 0 0,0
16.01.2019 20:00:00 7,0 4,6 0,5 8,9 11,5 10 5 15 8 SW 1019,4 20 0 0,0
16.01.2019 19:00:00 8,2 6,0 1,1 8,9 11,5 5 3 10 5 WNW 1019,3 13 0 0,0
16.01.2019 18:00:00 10,4 6,7 4,0 8,8 11,5 8 4 11 6 WNW 1019,4 17 0 0,0
16.01.2019 17:00:00 11,6 6,3 6,7 8,8 11,5 6 4 12 7 ESE 1019,5 20 36 0,0
16.01.2019 16:00:00 12,9 7,3 13,3 8,7 11,5 10 5 21 11 SE 1019,7 25 4 0,0
16.01.2019 15:00:00 14,3 7,3 19,4 8,7 11,5 13 7 22 12 ESE 1019,7 19 58 0,0
16.01.2019 14:00:00 14,7 6,0 22,9 8,7 11,5 5 3 19 10 ESE 1019,8 17 60 0,0
16.01.2019 13:00:00 14,8 7,1 20,1 8,7 11,5 9 5 18 10 SE 1020,5 18 60 0,0
16.01.2019 12:00:00 13,1 3,7 17,3 8,8 11,5 9 5 16 8 S 1021,4 60 60 0,0
16.01.2019 11:00:00 11,1 1,6 11,0 8,8 11,5 10 5 16 9 SSW 1022,2 49 60 0,0
16.01.2019 10:00:00 8,6 0,6 4,0 8,9 11,5 10 5 17 9 SSW 1022,1 14 60 0,0
16.01.2019 09:00:00 5,7 -0,4 -0,3 8,9 11,5 8 4 12 7 SSW 1021,8 6 48 0,0
16.01.2019 08:00:00 3,2 -1,4 -1,3 8,9 11,5 9 5 17 9 SW 1021,6 20 0 0,0
16.01.2019 07:00:00 2,5 -1,3 -1,4 9,0 11,5 8 5 13 7 SSW 1021,5 20 0 0,0
16.01.2019 06:00:00 4,5 -0,7 1,6 9,0 11,5 13 7 25 13 SSW 1021,1 20 0 0,0
16.01.2019 05:00:00 4,6 -0,6 -0,6 9,0 11,5 11 6 18 10 SSW 1021,1 20 0 0,0
16.01.2019 04:00:00 4,1 -0,3 -1,8 9,1 11,5 9 5 14 8 SW 1021,5 20 0 0,0
16.01.2019 03:00:00 4,0 0,0 -2,7 9,1 11,5 7 4 13 7 SW 1021,9 20 0 0,0
16.01.2019 02:00:00 3,2 0,3 -2,2 9,1 11,5 6 4 10 6 WSW 1021,6 20 0 0,0
16.01.2019 01:00:00 5,3 0,8 0,2 9,2 11,5 5 3 19 10 SSW 1021,8 20 0 0,0
16.01.2019 00:00:00 5,2 0,9 -0,4 9,2 11,5 11 6 18 10 S 1021,9 20 0 0,0
15.01.2019 23:00:00 6,5 1,4 1,6 9,2 11,5 12 7 25 14 SSW 1021,9 20 0 0,0
15.01.2019 22:00:00 6,8 1,5 2,9 9,2 11,5 9 5 21 12 SSW 1021,5 20 0 0,0
15.01.2019 21:00:00 6,0 2,3 -1,3 9,1 11,5 12 6 17 9 SSW 1021,2 20 0 0,0
15.01.2019 20:00:00 4,2 1,2 -1,0 9,1 11,5 4 2 10 5 SE 1020,8 20 0 0,0
15.01.2019 19:00:00 5,4 2,0 -0,4 9,1 11,5 6 3 9 5 SW 1020,4 20 0 0,0
15.01.2019 18:00:00 7,6 2,3 1,4 9,0 11,5 6 3 11 6 SW 1020,2 15 0 0,0
15.01.2019 17:00:00 11,7 1,9 8,5 9,0 11,5 10 6 29 16 SSE 1019,6 20 48 0,0

tt = Température de l'air
td = dewpoint
tt 5cm = Température de l'air 5cm
tt -20cm = Température de l'air -20cm
tt -100cm = Température de l'air -100cm
ff = Vitesse du vent
fx = gusts
dd = Direction du vent
ppp = reduced air pressure
vv = visibility
sd = Ensoleillement
rr = Quantités de précipitations

stations d'obs. à proximité